Location: ????
(33.1659°N, 35.6604°E)
Time: 14:28:14
(UTC+00:00)

Cosmos 2251 Rocket - Pass Details

Date: 20 September 2019
Orbit: 764 x 792 km, 74.0° (Epoch: 17 October)

Event Time Altitude Azimuth Distance (km) Brightness Sun altitude
Rises 16:17:07 0° 343° (NNW) 3,295 7.1 -9.1°
Reaches altitude 10° 16:19:31 10° 344° (NNW) 2,362 6.4 -9.6°
Maximum altitude 16:24:54 89° 67° (ENE) 795 3.6 -10.7°
Drops below altitude 10° 16:30:15 10° 164° (SSE) 2,340 5.8 -11.8°
Sets 16:32:37 0° 165° (SSE) 3,261 6.5 -12.3°
